You are listening to:
LHBP Info - Budapest, Hungary

LHBP 121630Z 31010KT CAVOK 21/05 Q1027 NOSIG

If stream doesn't start automatically press the play button
If stream stops then reload player then press play